Live-Position
3D-Globus wird geladen...
Über Starlink 5076
Group: 3 satellites
Beschreibung wird geladen...
Nächste Überflüge
Passes for default location (London). Set your location on the main map for personalized predictions.
Höhenverlauf
Loading altitude history...
No altitude history available
Zweizeiliger Elementsatz
1 55401U 23014L 26121.54138875 .00000582 00000-0 56536-4 0 9992
2 55401 69.9982 291.1330 0002974 265.5419 94.5400 14.98327524179973
Epoch: 1. Mai 2026 •
Age: 4 hours
Aktueller Status
Höhe 582.6 km
Geschwindigkeit 7.57 km/s
Subsatellitenpunkt 56.41°N,
32.74°W
Startdatum 31. Jan. 2023
Alter 3.2 years
Typ internet
Startgruppe
Falcon 9 •
Group 2-6 •
39 satellites
Starlink 5085
55392
Starlink 4786 55393
Starlink 5274 55395
Starlink 5283 55396
Starlink 5224 55397
Starlink 5275 55398
Starlink 5276 55399
Starlink 5632 55400
Starlink 5071 55402
Starlink 5597 55403
Starlink 5607 55404
Starlink 5623 55405
Starlink 5630 55406
Starlink 5019 55407
Starlink 5633 55410
Starlink 5605 55411
Starlink 5060 55413
Starlink 5620 55414
Starlink 5624 55416
Starlink 5030 55418
...and 18 more
Technische Details
Klassifizierung Payload
Masse 305.00 kg
Trockenmasse 290.00 kg
Gesamtmasse 305.00 kg
Länge 0.20 m
Durchmesser 2.80 m
Spannweite 9.00 m
Form Box + pan
Hersteller SPXS
Bus-Typ Starlink
Phasenstatus In Orbit
Besitzer/Staat SPXS/US
Most Searched
Loading...